Hourly Weather Roundup
Issued by NWS Central Illinois

Home | Current Version | Previous Version | Text Only | Print | Product List | Glossary On
Versions: 1 2 3 4 5 6 7 8 9 10 11 12 13 14 15 16 17 18 19 20 21 22 23 24 25 26 27 28 29 30 31 32 33 34 35 36 37 38 39 40 41 42 43 44 45 46 47 48 49 50
000
NZUS43 KILX 201110
HWRILX

AREA WEATHER ROUNDUP
NATIONAL WEATHER SERVICE, LINCOLN IL
600 AM CDT WED AUG 20 2014


CITY           SKY/WX    TMP DP  RH WIND       PRES   REMARKS
BLOOMINGTON    CLEAR     63  61  94 SW5       29.90R FOG
CHAMPAIGN      FOG       62  62 100 CALM      29.88R VSB 1/4
DECATUR        CLEAR     68  67  96 SW5       29.89R
FLORA          CLEAR     65  65  99 CALM      29.90R FOG
GALESBURG      CLEAR     62  62  99 CALM      29.86S
JACKSONVILLE   CLOUDY    70  69  97 CALM      29.88S FOG
LACON          FOG       62  61  96 CALM      29.86R VSB 3/4
LAWRENCEVILLE  PTCLDY    69  68  96 S3        29.90R FOG
LITCHFIELD     CLOUDY    69  68  98 CALM      29.88S FOG
$$


CITY           SKY/WX    TMP DP  RH WIND       PRES   REMARKS
LINCOLN        MOCLDY    65  64  97 CALM      29.86R FOG
MACOMB         PTCLDY    63  63 100 CALM      29.86F FOG
MATTOON        PTCLDY    72  70  93 SW6       29.88R
MT CARMEL AP   FOG       68  68 100 CALM      29.89R VSB 1
OLNEY-NOBLE AP FOG       66  66 100 CALM      29.89R VSB 3/4
PARIS            N/A     65  65 100 CALM      29.89R FOG
PEORIA         CLEAR     66  62  87 SW3       29.88R
PONTIAC        FOG       61  61 100 CALM      29.85S VSB 1/2
RANTOUL        CLEAR     66  64  92 CALM      29.88R
ROBINSON       FOG       69  69  98 CALM      29.90R VSB 1/2
SPRINGFIELD    PTCLDY    68  67  96 CALM      29.88R
TAYLORVILLE    MOCLDY    68  68 100 CALM      29.88S FOG
$$

...REGIONAL REPORTS...


CITY           SKY/WX    TMP DP  RH WIND       PRES   REMARKS
CHICAGO O`HARE PTCLDY    66  60  81 W7        29.83R
KANKAKEE       FOG       61  60  99 CALM      29.86R VSB 1/4
MOLINE         CLEAR     61  59  93 SW3       29.85R
MOUNT VERNON   CLEAR     66  63  88 CALM      29.89R
PITTSFIELD     TSTM      73  70  91 CALM      29.88S
QUINCY         CLOUDY    73  71  93 SE3       29.85F
ROCKFORD       CLOUDY    62  59  90 CALM      29.86R
$$


CITY           SKY/WX    TMP DP  RH WIND       PRES   REMARKS
BURLINGTON     PTCLDY    66  66 100 CALM      29.84S FOG
CEDAR RAPIDS   PTCLDY    61  61 100 SE3       29.83R FOG
DES MOINES     CLOUDY    70  68  93 S7        29.81R THUNDER
KIRKSVILLE     CLOUDY    71  70  96 S6        29.85F
OTTUMWA        CLOUDY    68  65  90 S3        29.82F
ST LOUIS       MOCLDY    75  70  84 CALM      29.88R
$$


CITY           SKY/WX    TMP DP  RH WIND       PRES   REMARKS
TERRE HAUTE    FOG       68  66  93 CALM      29.89R VSB 1/4
EVANSVILLE     CLEAR     70  68  93 CALM      29.90R
INDIANAPOLIS   CLEAR     65  63  93 SW6       29.87R
LAFAYETTE        N/A     62  62 100 CALM      29.86R FOG
MADISON        PTCLDY    62  60  93 CALM      29.82S
MILWAUKEE      PTCLDY    66  61  84 NW6       29.81S
$$





USA.gov is the U.S. government's official web portal to all federal, state and local government web resources and services.